Location: Igri�s
(42.2144°N, 0.4320°W)
Time: 14:26:29
(UTC+00:00)

Cosmos 2061 Rocket - Pass Details

Date: 13 August 2020
Orbit: 966 x 1012 km, 82.9° (Epoch: 24 September)

Event Time Altitude Azimuth Distance (km) Brightness Sun altitude
Exits shadow 21:37:24 42° 97° (E) 1,358 4.4 -23.9°
Maximum altitude 21:37:42 42° 89° (E) 1,352 4.4 -23.9°
Drops below altitude 10° 21:43:28 10° 21° (NNE) 2,715 6.7 -24.6°
Sets 21:46:06 0° 15° (NNE) 3,667 7.5 -24.9°
